User: anonymous   Login
Location: Unspecified
(0.0000°N, 0.0000°E)
Time: 17:53:56
(UTC+00:00)
Language:

Explorer 11/Cluster Stage 4 - Orbit

View from above orbital plane
View from above orbital plane
View from above satellite
View from above satellite

Ground track
Ground track

The orbit data is extracted from the following two-line orbital elements,

1   107U 61013A   20018.19089443  .00000282  00000-0  17199-4 0  9991
2   107  28.7885 315.6973 0547100 155.3475 207.4303 14.08893758944424
Epoch (UTC): 18 January 2020 04:34:53
Eccentricity: 0.0547100
inclination: 28.7885°
perigee height: 467 km
apogee height: 1259 km
right ascension of ascending node: 315.6973°
argument of perigee: 155.3475°
revolutions per day: 14.08893758
mean anomaly at epoch: 207.4303°
orbit number at epoch: 94442

The dashed part of the orbit path shows where the satellite is in the earth's shadow,  

DLR